Weather History for Elmira, NY

Change the Weather History Date:

Friday, December 28, 2012

  Actual Average Record
Temperature  
Mean Temperature 28 °F -  
Max Temperature 30 °F 32 °F 57 °F (2008)
Min Temperature 25 °F 16 °F -7 °F (1960)
Degree Days  
Heating Degree Days 38    
Moisture  
Dew Point 20 °F    
Average Humidity 75    
Maximum Humidity 78    
Minimum Humidity 69    
Precipitation  
Precipitation 0.00 in - - ()
Sea Level Pressure  
Sea Level Pressure 30.09 in    
Wind  
Wind Speed 4 mph (West)    
Max Wind Speed 9 mph    
Max Gust Speed -    
Visibility 10 miles    
Events      
Averages and records for this station are not official NWS values.
T = Trace of Precipitation, MM = Missing Value Source: NWS Daily Summary

Daily Weather History Graph

Daily Weather History Graph

Search for Another Location

Airport:

Trip Planner

Search our weather history database for the weather conditions in past years. The results will help you decide how hot, cold, wet, or windy it might be!

Date:

Astronomy

Dec. 28, 2012 Rise Set
Actual Time 7:35 AM EST 4:43 PM EST
Civil Twilight 7:03 AM EST 5:15 PM EST
Nautical Twilight 6:28 AM EST 5:50 PM EST
Astronomical Twilight 5:54 AM EST 6:24 PM EST
Moon 5:19 PM EST (12/28) 7:27 AM EST (12/28)
Length of Visible Light 10h 11m
Length of Day
9h 07m
Full, 100% of the Moon is Illuminated
Dec 28
Full
Jan 4
Last Quarter
Jan 11
New
Jan 18
First Quarter
Jan 26
Full

Hourly Weather History & Observations

Time (EST) Temp. Windchill Dew Point Humidity Pressure Visibility Wind Dir Wind Speed Gust Speed Precip Events Conditions
12:53 AM 26.1 °F 19.4 °F 19.0 °F 75% 30.01 in 10.0 mi WNW 5.8 mph - N/A   Overcast
1:53 AM 26.1 °F 20.5 °F 19.0 °F 75% 30.02 in 10.0 mi Variable 4.6 mph - N/A   Overcast
2:53 AM 26.1 °F 20.5 °F 19.0 °F 75% 30.05 in 10.0 mi West 4.6 mph - N/A   Overcast
3:53 AM 26.1 °F - 19.0 °F 75% 30.05 in 10.0 mi Calm Calm - N/A   Overcast
4:53 AM 26.1 °F 19.4 °F 19.0 °F 75% 30.07 in 10.0 mi West 5.8 mph - N/A   Overcast
5:53 AM 26.1 °F 19.4 °F 19.0 °F 75% 30.09 in 10.0 mi WNW 5.8 mph - N/A   Overcast
6:53 AM 26.1 °F 21.9 °F 19.0 °F 75% 30.11 in 10.0 mi NNW 3.5 mph - N/A   Overcast
7:53 AM 26.1 °F - 19.0 °F 75% 30.12 in 10.0 mi Calm Calm - N/A   Overcast
8:53 AM 25.0 °F 18.1 °F 19.0 °F 78% 30.14 in 10.0 mi West 5.8 mph - N/A   Overcast
9:53 AM 26.1 °F 20.5 °F 19.0 °F 75% 30.14 in 10.0 mi WSW 4.6 mph - N/A   Overcast
10:53 AM 27.0 °F 19.5 °F 19.0 °F 72% 30.14 in 10.0 mi NNW 6.9 mph - N/A   Overcast
11:53 AM 27.0 °F 21.6 °F 19.9 °F 75% 30.11 in 10.0 mi WSW 4.6 mph - N/A   Overcast
12:53 PM 28.0 °F 24.2 °F 21.0 °F 75% 30.09 in 10.0 mi WSW 3.5 mph - N/A   Overcast
1:53 PM 28.9 °F 21.9 °F 21.0 °F 72% 30.09 in 10.0 mi WSW 6.9 mph - N/A   Overcast
2:53 PM 30.0 °F 24.1 °F 21.0 °F 69% 30.12 in 10.0 mi West 5.8 mph - N/A   Overcast
3:53 PM 30.0 °F 21.7 °F 21.9 °F 72% 30.13 in 10.0 mi West 9.2 mph - N/A   Overcast
4:53 PM 30.0 °F 26.5 °F 21.9 °F 72% 30.09 in 10.0 mi Variable 3.5 mph - N/A   Overcast
5:53 PM 28.9 °F - 23.0 °F 78% 30.09 in 10.0 mi Calm Calm - N/A   Overcast
6:53 PM 28.9 °F 25.2 °F 21.9 °F 75% 30.10 in 10.0 mi NW 3.5 mph - N/A   Overcast
7:53 PM 28.9 °F - 21.9 °F 75% 30.08 in 10.0 mi Calm Calm - N/A   Overcast
8:53 PM 28.9 °F 22.8 °F 21.9 °F 75% 30.08 in 10.0 mi SW 5.8 mph - N/A   Overcast
9:53 PM 28.0 °F - 21.9 °F 78% 30.07 in 10.0 mi Calm Calm - N/A   Overcast
10:09 PM 28.4 °F 24.6 °F 21.2 °F 74% 30.03 in 10.0 mi SSE 3.5 mph - N/A   Overcast
11:53 PM 28.0 °F 24.2 °F 21.9 °F 78% 30.05 in 10.0 mi SW 3.5 mph - N/A   Overcast